Terug naar catalogus

STARLINK-5589

ActiefCommunicatieVLEO
NORAD 57334·PAYLOAD·🇺🇸 United States

Gelanceerd Jul 16, 2023 vanaf Cape Canaveral Space Force Station

Loading…

Volgende Passages (komende 24 uur)

TLE

VersSource: CelesTrak SupGP

Epoch: Sep 15, 2026, 03:08 UTC

1 57334C 23099G   26258.13104167 -.00028483  00000+0 -10316-2 0  2588
2 57334  42.9994 262.6089 0001289 266.0096 257.5555 15.27593159    15

Volg STARLINK-5589 in realtime met AllMySat

Download on the App Store